User: anonymous   Login
Location: Unspecified
(0.0000°N, 0.0000°E)
Time: 07:49:16
(UTC+00:00)
Language:

TYVAK-61C - Orbit

View from above orbital plane
View from above orbital plane
View from above satellite
View from above satellite

Ground track
Ground track

The orbit data is extracted from the following two-line orbital elements,

1 43144U 18004AK  21024.88652984  .00002300  00000-0  89709-4 0  9990
2 43144  97.4295 102.8434 0007625  17.1806 342.9690 15.26948260168921
Epoch (UTC): 24 January 2021 21:16:36
Eccentricity: 0.0007625
inclination: 97.4295°
perigee height: 480 km
apogee height: 490 km
right ascension of ascending node: 102.8434°
argument of perigee: 17.1806°
revolutions per day: 15.26948260
mean anomaly at epoch: 342.9690°
orbit number at epoch: 16892

The dashed part of the orbit path shows where the satellite is in the earth's shadow,  

DLR